カタログに戻る

COSMOS 1275 DEB

運用中PO
NORAD 13796·DEBRIS·🇷🇺 Russia

打ち上げ Jun 4, 1981 から Plesetsk Cosmodrome

Loading…

次のパス (今後24時間)

TLE

最新Source: Space-Track

元期: Sep 14, 2026, 05:38 UTC

1 13796U 81053GQ  26257.23484032  .00000925  00000-0  78071-3 0  9993
2 13796  83.0200  76.0520 0109651 230.5508 256.4808 13.84101102195139

AllMySatでCOSMOS 1275 DEBをリアルタイム追跡

Download on the App Store